This demonstration page uses our WeatherBlox Daily Observations layout. Learn more.

Left ArrowRight Arrow

Hourly Observations for May 4, 2019

Temp ( °F °C ) Dew Point ( °F °C ) Humidity (%) Winds ( mph kmh ) Pressure ( in mb ) Visibility ( mi km ) Precip ( " mm )
12:28 am 00:28 Cloudy with Thunderstorms 55 12.8 51 10.6 87 87 Calm 29.97 1015 3 5 0.00 0.03
12:51 am 00:51 Cloudy with Nearby Thunderstorms 55 12.8 52 11.1 90 90 NE 3 6 29.96 1014 3 5 0.01 0.25
1:21 am 01:21 Cloudy with Strong Thunderstorms 55 13 52 11 88 88 NNW 5 7 29.97 1015 3 4 0.00 0.00
1:27 am 01:27 Cloudy with Strong Thunderstorms 55 13 52 11 88 88 N 5 7 29.95 1014 1 1 0.00 0.00
1:32 am 01:32 Cloudy with Strong Thunderstorms 55 12.8 52 11.1 90 90 SE 5 7 29.95 1014 1 2 0.24 6.10
1:36 am 01:36 Cloudy with Thunderstorms 54 12.2 52 11.1 93 93 Calm 29.95 1014 2 3 0.25 6.35
1:42 am 01:42 Cloudy with Thunderstorms 55 13 52 11 88 88 Calm 29.95 1014 3 5 0.00 0.00
1:51 am 01:51 Cloudy with Light Rain 54 12.2 52 11.1 93 93 ESE 3 6 29.93 1014 3 5 0.25 6.35
1:58 am 01:58 Cloudy with Light Rain 54 12.2 52 11.1 93 93 Calm 29.93 1014 3 5 0.00 0.03
2:51 am 02:51 Mostly Cloudy with Mist and Fog 55 12.8 53 11.7 93 93 Calm 29.90 1012 3 5 0.00 0.03
3:51 am 03:51 Mostly Clear with Mist and Fog 54 12.2 52 11.1 93 93 Calm 29.89 1012 4 6 0.00 0.00
4:51 am 04:51 Mostly Clear with Mist and Fog 54 12.2 52 11.1 93 93 Calm 29.88 1012 3 5 0.00 0.00
5:51 am 05:51 Cloudy with Mist and Fog 55 12.8 53 11.7 93 93 Calm 29.87 1012 3 5 0.00 0.00
6:51 am 06:51 Cloudy with Mist and Fog 55 12.8 53 11.7 93 93 Calm 29.88 1012 2 3 0.00 0.00
7:51 am 07:51 Cloudy with Light Rain 56 13.3 53 11.7 90 90 Calm 29.90 1012 2 3 0.00 0.03
8:51 am 08:51 Cloudy with Light Rain 57 13.9 54 12.2 90 90 ENE 3 6 29.89 1012 2 3 0.01 0.25
9:51 am 09:51 Cloudy with Light Rain 59 15 54 12.2 83 83 Calm 29.89 1012 2 3 0.00 0.03
10:51 am 10:51 Cloudy with Light Rain 61 16.1 55 12.8 81 81 Calm 29.88 1012 5 8 0.00 0.03
11:29 am 11:29 Cloudy with Haze 63 17 55 13 77 77 ENE 3 6 29.88 1012 4 6 0.00 0.00
11:51 am 11:51 Cloudy with Haze 62 16.7 56 13.3 80 80 Calm 29.88 1012 4 6 0.00 0.03
12:00 pm 12:00 Cloudy 63 17.2 56 13.3 78 78 Calm 29.88 1012 4 6 0.00 0.00
12:51 pm 12:51 Cloudy 65 18.3 58 14.4 78 78 ESE 3 6 29.85 1011 6 10 0.00 0.00
1:27 pm 13:27 Mostly Cloudy 67 19.4 59 15 76 76 Calm 29.85 1011 6 10 0.00 0.00
1:51 pm 13:51 Mostly Cloudy 68 20 59 15 73 73 ESE 5 7 29.84 1011 8 13 0.00 0.00
2:51 pm 14:51 Mostly Cloudy 71 21.7 60 15.6 68 68 VRB 5 7 29.82 1010 8 13 0.00 0.00
3:51 pm 15:51 Cloudy 71 21.7 59 15 66 66 undefined N/A 29.80 1009 10 16 0.00 0.00
4:12 pm 16:12 Cloudy 71 21.7 58 14.4 63 63 SSE 5 7 29.80 1009 8 13 0.00 0.00
4:51 pm 16:51 Cloudy 71 21.7 59 15 66 66 ESE 6 9 29.80 1009 10 16 0.00 0.00
5:51 pm 17:51 Partly Cloudy 71 21.7 59 15 66 66 SE 9 15 29.79 1009 10 16 0.00 0.00
6:51 pm 18:51 Sunny 69 20.6 58 14.4 68 68 SE 7 11 29.79 1009 10 16 0.00 0.00
7:51 pm 19:51 Sunny 66 18.9 57 13.9 73 73 SE 6 9 29.80 1009 10 16 0.00 0.00
8:51 pm 20:51 Cloudy 62 16.7 56 13.3 80 80 SW 7 11 29.82 1010 10 16 0.00 0.00
9:51 pm 21:51 Cloudy with Haze 60 15.6 55 12.8 84 84 SSW 7 11 29.83 1010 5 8 0.00 0.00
10:51 pm 22:51 Cloudy with Haze 60 15.6 55 12.8 84 84 SW 7 11 29.83 1010 5 8 0.00 0.00
11:51 pm 23:51 Cloudy with Haze 60 15.6 55 12.8 84 84 Calm 29.83 1010 7 11 0.00 0.00

Powered by Vaisala Xweather